Tracking 21076 objects as of 9-Aug-2020
HD Live streaming from Space Station
objects crossing your sky now
Track the most recent launched group of Starlink satellites

COSMOS 2100

Track COSMOS 2100 now!
10-day predictions
COSMOS 2100 is classified as:


NORAD ID: 20804
Int'l Code: 1990-083A
Perigee: 963.1 km
Apogee: 1,019.3 km
Inclination: 82.9 °
Period: 104.8 minutes
Semi major axis: 7362 km
RCS: 2.1376 m2 (large)
Launch date: September 14, 1990
Source: Commonwealth of Independent States (former USSR) (CIS)
Launch site: PLESETSK MISSILE AND SPACE COMPLEX (PKMTR)
aabbcc
Your satellite tracking list
Your tracking list is empty




NASA's NSSDC Master Catalog

Two Line Element Set (TLE):
1 20804U 90083A   20221.87271264 +.00000039 +00000-0 +24308-4 0  9991
2 20804 082.9413 311.0181 0038152 116.4445 021.9487 13.74335295499502
Source of the keplerian elements: AFSPC